"TOA5","Library","CR1000","2231","CR1000.Std.12","CPU:CCHRC2 LIBRARY 2007-10-19.CR1","41494","OneMinMasnFurn"
"TIMESTAMP","RECORD","Station_ID","SE_MasnFurn_T","NE_MasnFurn_T","SW_MasnFurn_T","NW_MasnFurn_T","Stack_T"
"TS","RN","","Deg_C","Deg_C","Deg_C","Deg_C","Deg_C"
"","","Smp","Smp","Smp","Smp","Smp","Smp"
"2013-10-07 10:13:00",3139073,11,20.92,21.7,24.85,24.85,111.7
"2013-10-07 10:14:00",3139074,11,20.85,21.73,24.85,25.05,111.6
"2013-10-07 10:15:00",3139075,11,20.82,21.87,25.12,24.88,110.6
"2013-10-07 10:16:00",3139076,11,20.85,21.73,25.02,24.98,110.7
"2013-10-07 10:17:00",3139077,11,20.85,21.73,25.12,25.08,110.7
"2013-10-07 10:18:00",3139078,11,20.92,22,25.25,25.02,110.2
"2013-10-07 10:19:00",3139079,11,21.06,22,25.12,25.25,109.7
"2013-10-07 10:20:00",3139080,11,20.99,22,25.25,25.25,109.6
"2013-10-07 10:21:00",3139081,11,20.99,22.07,25.29,25.39,108.8
"2013-10-07 10:22:00",3139082,11,20.99,22.14,25.25,25.52,108.1
"2013-10-07 10:23:00",3139083,11,21.09,22.14,25.42,25.59,108.3
"2013-10-07 10:24:00",3139084,11,21.12,22.27,25.52,25.66,107.8
"2013-10-07 10:25:00",3139085,11,21.06,22.24,25.52,25.8,108
"2013-10-07 10:26:00",3139086,11,21.09,22.31,25.52,25.8,107.2
"2013-10-07 10:27:00",3139087,11,21.19,22.41,25.66,25.93,107.1
"2013-10-07 10:28:00",3139088,11,21.12,22.41,25.66,26.07,107.1
"2013-10-07 10:29:00",3139089,11,21.19,22.44,25.76,26.07,106.8
"2013-10-07 10:30:00",3139090,11,21.23,22.48,25.73,26.2,106.5
"2013-10-07 10:31:00",3139091,11,21.23,22.55,25.73,26.34,106.1
"2013-10-07 10:32:00",3139092,11,21.19,22.58,25.8,26.34,106
"2013-10-07 10:33:00",3139093,11,21.26,22.65,25.96,26.47,105.6
"2013-10-07 10:34:00",3139094,11,21.19,22.65,26.03,26.61,105.6
"2013-10-07 10:35:00",3139095,11,21.19,22.78,26,26.61,105.3
"2013-10-07 10:36:00",3139096,11,21.33,22.75,26,26.78,105.1
"2013-10-07 10:37:00",3139097,11,21.33,22.82,26,26.88,104.9
"2013-10-07 10:38:00",3139098,11,21.36,22.95,26.17,26.88,104.5
"2013-10-07 10:39:00",3139099,11,21.46,22.95,26.27,26.91,103.9
"2013-10-07 10:40:00",3139100,11,21.33,23.02,26.34,27.15,103.7
"2013-10-07 10:41:00",3139101,11,21.46,22.95,26.34,27.15,103.5
"2013-10-07 10:42:00",3139102,11,21.43,23.05,26.34,27.29,103.3
"2013-10-07 10:43:00",3139103,11,21.46,23.02,26.34,27.35,103
"2013-10-07 10:44:00",3139104,11,21.5,23.29,26.61,27.39,102.7
"2013-10-07 10:45:00",3139105,11,21.6,23.29,26.47,27.49,102.5
"2013-10-07 10:46:00",3139106,11,21.46,23.39,26.61,27.49,102.2
"2013-10-07 10:47:00",3139107,11,21.46,23.46,26.61,27.62,102.1
"2013-10-07 10:48:00",3139108,11,21.46,23.56,26.81,27.73,101.6
"2013-10-07 10:49:00",3139109,11,21.46,23.56,26.88,27.86,101.4
"2013-10-07 10:50:00",3139110,11,21.5,23.56,27.01,28,101.3
"2013-10-07 10:51:00",3139111,11,21.6,23.56,26.88,27.93,100.8
"2013-10-07 10:52:00",3139112,11,21.73,23.83,26.88,28.06,100.5
"2013-10-07 10:53:00",3139113,11,21.83,23.83,27.01,28.17,99.8
"2013-10-07 10:54:00",3139114,11,21.83,23.83,27.05,28.3,99.8
"2013-10-07 10:55:00",3139115,11,21.87,23.83,27.29,28.3,99.3
"2013-10-07 10:56:00",3139116,11,21.87,24,27.29,28.44,99.1
"2013-10-07 10:57:00",3139117,11,21.87,23.97,27.29,28.44,98.7
"2013-10-07 10:58:00",3139118,11,21.87,24.1,27.42,28.5,98.2
"2013-10-07 10:59:00",3139119,11,21.87,23.97,27.45,28.64,94.2
"2013-10-07 11:00:00",3139120,11,21.87,24.1,27.56,28.77,90.9
"2013-10-07 11:01:00",3139121,11,21.87,24.24,27.45,28.81,88.7
"2013-10-07 11:02:00",3139122,11,22,24.27,27.69,28.77,86.7
"2013-10-07 11:03:00",3139123,11,22,24.27,27.69,28.91,85.2
"2013-10-07 11:04:00",3139124,11,21.87,24.44,27.83,28.91,84.1
"2013-10-07 11:05:00",3139125,11,22.07,24.51,27.76,29.18,83.1
"2013-10-07 11:06:00",3139126,11,22,24.54,27.83,29.18,82
"2013-10-07 11:07:00",3139127,11,22.14,24.51,27.83,29.42,81.4
"2013-10-07 11:08:00",3139128,11,22.14,24.64,28.03,29.38,80.7
"2013-10-07 11:09:00",3139129,11,22.14,24.64,28.1,29.45,79.8
"2013-10-07 11:10:00",3139130,11,22.24,24.64,28.1,29.45,78.35
"2013-10-07 11:11:00",3139131,11,22.27,24.71,28.1,29.59,78.01
"2013-10-07 11:12:00",3139132,11,22.27,24.78,28.37,29.72,77.65
